Precipitable_Water
0.20 0.21 0.21 0.21 0.19 0.19 0.21 0.23 0.23 0.23 0.25 0.24 0.23 0.25 0.28 0.28 0.25 0.24 0.30 0.32 0.30 0.34 0.56 0.70 0.70 0.73 0.79 0.89 1.05 1.11 1.04 1.02 1.00 1.00 1.02 1.06 1.12 1.18 1.24 1.27 1.28 1.30 1.35 1.48 1.58 1.61 1.65 1.71 1.68 1.62 1.64 1.68 1.69 1.68 1.68 1.72 1.76 1.78 1.81 1.75 1.68 1.62 1.55 1.46 1.37 1.34 1.35 1.37 1.37 1.35 1.34 1.30 1.25 1.17 1.10 1.05 1.02 1.00 0.98 0.95 0.93 0.92 0.92 0.92 0.91 0.91 0.93
0.18 0.20 0.21 0.21 0.19 0.18 0.17 0.18 0.20 0.21 0.21 0.21 0.21 0.22 0.26 0.27 0.27 0.28 0.30 0.33 0.33 0.51 0.57 0.67 0.76 0.82 0.83 0.91 1.00 1.14 1.07 1.06 1.03 1.00 1.02 1.08 1.14 1.19 1.22 1.26 1.30 1.32 1.36 1.44 1.49 1.51 1.55 1.64 1.69 1.76 1.80 1.80 1.78 1.73 1.71 1.74 1.76 1.82 1.86 1.83 1.76 1.69 1.60 1.52 1.48 1.45 1.43 1.42 1.39 1.38 1.35 1.30 1.27 1.24 1.18 1.12 1.07 1.03 1.00 0.99 0.98 0.98 0.97 0.97 0.96 0.95 0.94
0.13 0.16 0.20 0.20 0.20 0.19 0.16 0.18 0.19 0.19 0.19 0.20 0.19 0.18 0.19 0.23 0.25 0.29 0.30 0.32 0.34 0.64 0.71 0.76 0.88 0.85 0.86 0.87 0.90 1.02 1.11 1.12 1.11 1.03 1.02 1.06 1.12 1.17 1.24 1.26 1.27 1.32 1.37 1.41 1.42 1.41 1.48 1.56 1.64 1.69 1.75 1.83 1.83 1.81 1.81 1.81 1.83 1.89 1.91 1.88 1.85 1.78 1.67 1.63 1.59 1.55 1.51 1.46 1.44 1.39 1.35 1.32 1.30 1.27 1.22 1.18 1.12 1.07 1.05 1.04 1.02 1.02 1.02 1.00 0.99 1.00 1.00
0.12 0.16 0.16 0.19 0.20 0.19 0.17 0.15 0.16 0.17 0.17 0.16 0.17 0.17 0.20 0.20 0.20 0.25 0.29 0.29 0.37 0.57 0.74 0.77 0.80 0.83 0.79 0.76 0.80 0.89 1.09 1.16 1.16 1.10 1.06 1.10 1.11 1.13 1.19 1.23 1.26 1.31 1.34 1.36 1.37 1.41 1.45 1.53 1.62 1.68 1.72 1.75 1.82 1.84 1.82 1.80 1.84 1.91 1.93 1.93 1.89 1.83 1.77 1.73 1.68 1.62 1.57 1.53 1.47 1.40 1.38 1.33 1.29 1.27 1.25 1.22 1.16 1.12 1.09 1.07 1.08 1.08 1.05 1.02 1.02 1.04 1.05
0.14 0.18 0.19 0.17 0.19 0.16 0.11 0.11 0.17 0.27 0.30 0.30 0.31 0.34 0.35 0.33 0.32 0.22 0.22 0.30 0.52 0.56 0.63 0.62 0.68 0.75 0.77 0.77 0.78 0.81 0.97 1.13 1.14 1.12 1.11 1.13 1.14 1.13 1.13 1.18 1.25 1.30 1.35 1.38 1.40 1.40 1.45 1.48 1.54 1.65 1.72 1.74 1.78 1.84 1.91 1.90 1.88 1.85 1.81 1.81 1.81 1.79 1.78 1.75 1.71 1.69 1.66 1.60 1.54 1.48 1.42 1.38 1.36 1.32 1.27 1.23 1.19 1.16 1.11 1.11 1.13 1.12 1.08 1.07 1.06 1.07 1.07
0.18 0.21 0.20 0.22 0.16 0.08 0.07 0.18 0.30 0.36 0.35 0.34 0.30 0.34 0.37 0.40 0.39 0.35 0.37 0.41 0.51 0.58 0.60 0.59 0.61 0.66 0.71 0.75 0.81 0.88 0.87 0.95 1.08 1.13 1.12 1.14 1.14 1.15 1.11 1.11 1.19 1.29 1.33 1.41 1.43 1.44 1.45 1.50 1.54 1.65 1.72 1.76 1.78 1.86 1.97 2.01 1.95 1.91 1.86 1.83 1.83 1.82 1.83 1.84 1.84 1.81 1.75 1.67 1.60 1.56 1.54 1.51 1.46 1.39 1.32 1.24 1.22 1.21 1.20 1.19 1.17 1.14 1.15 1.13 1.12 1.10 1.09
0.19 0.24 0.23 0.16 0.10 0.08 0.13 0.25 0.32 0.36 0.39 0.36 0.37 0.42 0.44 0.44 0.45 0.43 0.40 0.42 0.48 0.53 0.61 0.62 0.64 0.69 0.78 0.78 0.80 0.84 0.91 0.93 1.01 1.10 1.15 1.15 1.16 1.14 1.11 1.09 1.08 1.19 1.32 1.33 1.38 1.45 1.49 1.48 1.54 1.59 1.66 1.72 1.77 1.83 1.83 1.89 1.99 1.93 1.89 1.85 1.84 1.84 1.82 1.81 1.83 1.86 1.85 1.78 1.69 1.65 1.63 1.61 1.55 1.46 1.38 1.31 1.28 1.26 1.24 1.21 1.18 1.16 1.16 1.15 1.15 1.15 1.14
0.26 0.22 0.21 0.12 0.09 0.17 0.22 0.25 0.35 0.37 0.36 0.38 0.34 0.32 0.41 0.45 0.46 0.45 0.41 0.43 0.46 0.50 0.53 0.63 0.69 0.71 0.76 0.82 0.83 0.84 0.87 0.92 0.95 1.07 1.11 1.15 1.18 1.16 1.13 1.11 1.08 1.09 1.20 1.24 1.41 1.43 1.47 1.53 1.53 1.57 1.62 1.69 1.73 1.78 1.83 1.79 1.85 1.91 1.86 1.80 1.80 1.83 1.81 1.79 1.78 1.79 1.80 1.78 1.76 1.72 1.68 1.65 1.61 1.54 1.47 1.40 1.32 1.30 1.28 1.26 1.27 1.28 1.28 1.27 1.22 1.20 1.19
0.20 0.23 0.22 0.18 0.21 0.20 0.19 0.19 0.24 0.31 0.28 0.30 0.30 0.23 0.30 0.43 0.46 0.45 0.42 0.44 0.46 0.48 0.52 0.55 0.61 0.71 0.73 0.77 0.79 0.84 0.85 0.87 0.93 1.02 1.12 1.16 1.16 1.18 1.17 1.15 1.12 1.12 1.09 1.16 1.28 1.41 1.46 1.57 1.56 1.55 1.61 1.62 1.62 1.68 1.72 1.74 1.73 1.76 1.78 1.76 1.75 1.77 1.79 1.81 1.80 1.79 1.78 1.77 1.76 1.76 1.73 1.67 1.61 1.58 1.54 1.49 1.46 1.45 1.35 1.30 1.26 1.26 1.25 1.26 1.26 1.24 1.23
0.29 0.23 0.21 0.21 0.18 0.13 0.17 0.28 0.37 0.42 0.43 0.41 0.43 0.33 0.28 0.43 0.47 0.50 0.47 0.43 0.43 0.42 0.47 0.51 0.54 0.59 0.56 0.58 0.74 0.84 0.87 0.90 0.90 0.94 1.04 1.15 1.17 1.16 1.15 1.18 1.15 1.14 1.11 1.09 1.15 1.18 1.28 1.42 1.53 1.59 1.60 1.62 1.62 1.58 1.60 1.64 1.63 1.64 1.68 1.69 1.76 1.83 1.81 1.81 1.83 1.85 1.85 1.83 1.78 1.77 1.77 1.69 1.64 1.64 1.66 1.65 1.59 1.56 1.43 1.36 1.31 1.30 1.32 1.32 1.33 1.32 1.27
0.27 0.25 0.21 0.19 0.16 0.16 0.27 0.31 0.38 0.44 0.46 0.44 0.48 0.33 0.23 0.40 0.45 0.48 0.48 0.45 0.45 0.44 0.43 0.45 0.50 0.46 0.42 0.45 0.56 0.76 0.84 0.85 0.89 0.89 0.92 0.98 1.05 1.15 1.16 1.16 1.13 1.12 1.10 1.09 1.06 1.06 1.06 1.12 1.36 1.54 1.62 1.62 1.58 1.61 1.61 1.57 1.57 1.58 1.63 1.70 1.76 1.77 1.78 1.84 1.89 1.89 1.85 1.81 1.81 1.78 1.75 1.73 1.74 1.73 1.72 1.71 1.70 1.69 1.58 1.51 1.43 1.44 1.44 1.39 1.36 1.36 1.34
0.28 0.27 0.23 0.19 0.22 0.20 0.32 0.40 0.43 0.45 0.49 0.49 0.40 0.20 0.22 0.40 0.46 0.48 0.48 0.47 0.47 0.47 0.47 0.47 0.45 0.43 0.38 0.44 0.53 0.70 0.77 0.80 0.84 0.87 0.87 0.89 0.98 1.10 1.18 1.17 1.16 1.12 1.10 1.07 1.03 1.00 1.00 1.01 1.10 1.27 1.46 1.53 1.51 1.50 1.56 1.58 1.52 1.52 1.60 1.71 1.77 1.82 1.84 1.86 1.91 1.94 1.89 1.77 1.74 1.75 1.74 1.76 1.81 1.83 1.87 1.87 1.84 1.76 1.69 1.62 1.54 1.51 1.49 1.46 1.41 1.38 1.39
0.30 0.29 0.27 0.28 0.27 0.37 0.43 0.43 0.46 0.47 0.48 0.41 0.25 0.17 0.29 0.46 0.49 0.51 0.51 0.49 0.50 0.50 0.48 0.48 0.40 0.48 0.55 0.59 0.64 0.68 0.74 0.75 0.78 0.84 0.88 0.90 0.96 1.06 1.13 1.16 1.19 1.12 1.10 1.09 1.05 1.03 1.01 1.03 1.06 1.11 1.26 1.38 1.41 1.44 1.51 1.58 1.58 1.59 1.63 1.72 1.79 1.84 1.92 1.93 1.87 1.84 1.83 1.81 1.79 1.81 1.81 1.82 1.86 1.91 1.94 1.91 1.91 1.87 1.78 1.73 1.66 1.58 1.52 1.51 1.48 1.46 1.46
0.29 0.32 0.27 0.26 0.30 0.40 0.48 0.51 0.49 0.53 0.39 0.23 0.19 0.37 0.50 0.49 0.49 0.53 0.53 0.50 0.50 0.49 0.47 0.47 0.47 0.50 0.56 0.61 0.65 0.65 0.65 0.70 0.75 0.79 0.83 0.86 0.91 1.03 1.13 1.16 1.18 1.14 1.09 1.09 1.10 1.07 1.06 1.06 1.07 1.09 1.12 1.19 1.37 1.49 1.56 1.61 1.66 1.71 1.69 1.71 1.81 1.90 1.93 1.90 1.91 1.87 1.78 1.78 1.83 1.86 1.90 1.92 1.91 1.92 1.96 1.97 1.96 1.94 1.91 1.83 1.73 1.65 1.60 1.56 1.52 1.50 1.51
0.34 0.32 0.27 0.25 0.20 0.40 0.51 0.51 0.48 0.54 0.34 0.35 0.46 0.47 0.51 0.55 0.53 0.52 0.52 0.52 0.51 0.50 0.45 0.47 0.47 0.48 0.50 0.55 0.59 0.63 0.64 0.66 0.69 0.74 0.77 0.79 0.83 0.89 1.01 1.07 1.14 1.16 1.12 1.11 1.11 1.09 1.10 1.09 1.08 1.09 1.08 1.09 1.21 1.39 1.48 1.59 1.70 1.73 1.75 1.77 1.84 1.89 1.90 1.86 1.86 1.88 1.85 1.80 1.80 1.86 1.90 1.94 1.91 1.88 1.93 1.95 1.96 1.97 1.94 1.88 1.80 1.72 1.66 1.61 1.55 1.51 1.50
0.26 0.25 0.22 0.22 0.35 0.46 0.56 0.52 0.40 0.51 0.52 0.55 0.53 0.49 0.45 0.54 0.55 0.53 0.51 0.52 0.53 0.53 0.49 0.46 0.45 0.45 0.46 0.49 0.55 0.60 0.64 0.65 0.69 0.73 0.75 0.76 0.81 0.86 0.92 0.99 1.05 1.09 1.10 1.13 1.14 1.14 1.13 1.11 1.09 1.10 1.09 1.06 1.10 1.15 1.28 1.54 1.66 1.72 1.78 1.84 1.87 1.88 1.88 1.87 1.87 1.87 1.90 1.89 1.85 1.84 1.86 1.89 1.89 1.86 1.89 1.92 1.95 1.97 1.96 1.92 1.86 1.77 1.70 1.65 1.58 1.51 1.47
0.32 0.28 0.32 0.40 0.45 0.50 0.55 0.56 0.56 0.58 0.61 0.61 0.58 0.54 0.50 0.49 0.52 0.57 0.52 0.51 0.53 0.54 0.52 0.49 0.47 0.44 0.44 0.45 0.49 0.54 0.61 0.64 0.65 0.68 0.70 0.74 0.76 0.80 0.84 0.88 0.97 1.03 1.06 1.09 1.13 1.13 1.15 1.15 1.14 1.11 1.13 1.07 1.04 1.03 1.14 1.30 1.42 1.57 1.69 1.76 1.80 1.82 1.84 1.85 1.84 1.83 1.84 1.86 1.85 1.84 1.85 1.86 1.83 1.84 1.85 1.90 1.89 1.94 1.96 1.93 1.88 1.80 1.73 1.68 1.59 1.53 1.52
0.42 0.43 0.42 0.46 0.47 0.49 0.51 0.56 0.60 0.59 0.59 0.60 0.59 0.56 0.51 0.52 0.54 0.56 0.53 0.53 0.52 0.53 0.54 0.49 0.47 0.46 0.46 0.45 0.46 0.49 0.55 0.62 0.64 0.68 0.70 0.72 0.75 0.79 0.84 0.86 0.90 0.96 1.01 1.07 1.11 1.10 1.12 1.16 1.16 1.16 1.16 1.15 1.07 1.09 1.19 1.25 1.32 1.42 1.53 1.62 1.69 1.74 1.79 1.81 1.81 1.82 1.78 1.76 1.80 1.83 1.85 1.87 1.85 1.86 1.86 1.90 1.90 1.92 1.94 1.91 1.87 1.82 1.77 1.73 1.66 1.60 1.55
0.32 0.24 0.40 0.39 0.43 0.48 0.50 0.52 0.57 0.60 0.60 0.58 0.59 0.56 0.55 0.55 0.55 0.55 0.57 0.55 0.54 0.54 0.54 0.52 0.49 0.47 0.48 0.47 0.46 0.48 0.51 0.57 0.62 0.65 0.68 0.70 0.73 0.76 0.80 0.87 0.89 0.90 0.95 0.99 1.04 1.07 1.08 1.15 1.17 1.17 1.16 1.18 1.20 1.22 1.23 1.28 1.32 1.38 1.39 1.41 1.46 1.53 1.62 1.72 1.78 1.79 1.74 1.73 1.73 1.76 1.81 1.83 1.85 1.87 1.90 1.92 1.93 1.92 1.91 1.87 1.83 1.80 1.78 1.75 1.69 1.64 1.57
0.30 0.28 0.35 0.39 0.42 0.43 0.46 0.49 0.50 0.51 0.54 0.57 0.59 0.58 0.57 0.56 0.56 0.56 0.57 0.57 0.55 0.55 0.52 0.53 0.50 0.49 0.50 0.48 0.46 0.46 0.49 0.52 0.59 0.63 0.67 0.71 0.71 0.75 0.81 0.86 0.90 0.90 0.90 0.93 0.99 1.06 1.08 1.15 1.18 1.20 1.18 1.17 1.21 1.22 1.25 1.28 1.30 1.33 1.34 1.35 1.35 1.39 1.48 1.58 1.64 1.70 1.71 1.71 1.71 1.70 1.74 1.79 1.80 1.83 1.88 1.90 1.88 1.87 1.84 1.82 1.79 1.78 1.79 1.76 1.71 1.66 1.62
0.34 0.38 0.40 0.40 0.41 0.40 0.43 0.47 0.52 0.55 0.55 0.54 0.54 0.55 0.55 0.55 0.54 0.55 0.56 0.57 0.55 0.54 0.52 0.54 0.51 0.48 0.48 0.49 0.48 0.47 0.48 0.52 0.55 0.60 0.64 0.68 0.70 0.73 0.77 0.84 0.89 0.88 0.89 0.91 0.96 1.04 1.10 1.17 1.19 1.19 1.19 1.19 1.22 1.22 1.25 1.29 1.27 1.25 1.25 1.29 1.30 1.34 1.44 1.54 1.59 1.65 1.68 1.69 1.70 1.71 1.72 1.75 1.76 1.79 1.79 1.83 1.85 1.87 1.95 1.98 1.93 1.87 1.84 1.82 1.81 1.80 1.77
0.29 0.29 0.32 0.37 0.28 0.26 0.35 0.41 0.46 0.51 0.54 0.54 0.52 0.53 0.53 0.53 0.53 0.53 0.52 0.53 0.56 0.55 0.54 0.53 0.52 0.48 0.47 0.50 0.51 0.49 0.49 0.50 0.54 0.58 0.63 0.66 0.68 0.70 0.76 0.83 0.88 0.90 0.92 0.95 0.98 1.00 1.09 1.19 1.21 1.21 1.20 1.22 1.23 1.24 1.27 1.28 1.24 1.18 1.20 1.23 1.24 1.26 1.39 1.47 1.53 1.58 1.61 1.67 1.72 1.73 1.72 1.72 1.74 1.82 1.94 1.94 1.94 1.88 1.87 1.98 2.02 2.03 1.99 1.88 1.86 1.88 1.84
0.28 0.35 0.39 0.41 0.39 0.38 0.39 0.43 0.48 0.52 0.56 0.56 0.54 0.53 0.53 0.54 0.54 0.54 0.53 0.51 0.52 0.52 0.54 0.56 0.52 0.49 0.48 0.49 0.51 0.50 0.49 0.51 0.55 0.58 0.62 0.66 0.68 0.69 0.76 0.80 0.85 0.88 0.92 0.96 0.98 0.98 1.05 1.17 1.20 1.22 1.19 1.21 1.24 1.27 1.31 1.30 1.25 1.19 1.18 1.19 1.23 1.27 1.36 1.45 1.52 1.57 1.61 1.63 1.69 1.71 1.70 1.69 1.71 1.74 1.77 1.85 1.89 1.90 1.91 1.97 2.03 2.03 2.02 2.00 2.00 1.97 1.90
0.38 0.41 0.41 0.43 0.41 0.38 0.41 0.47 0.50 0.52 0.57 0.58 0.57 0.58 0.59 0.58 0.57 0.56 0.55 0.55 0.53 0.52 0.54 0.55 0.55 0.52 0.51 0.52 0.53 0.50 0.51 0.53 0.55 0.57 0.60 0.67 0.70 0.72 0.77 0.81 0.85 0.88 0.90 0.93 0.92 0.92 1.02 1.15 1.23 1.25 1.19 1.22 1.26 1.28 1.30 1.32 1.29 1.21 1.19 1.18 1.19 1.27 1.38 1.46 1.51 1.56 1.58 1.61 1.68 1.71 1.71 1.74 1.75 1.68 1.61 1.58 1.66 1.79 1.84 1.88 1.94 1.98 2.01 2.03 2.03 2.00 1.98
0.35 0.41 0.42 0.43 0.44 0.45 0.48 0.50 0.52 0.54 0.57 0.58 0.57 0.58 0.60 0.60 0.61 0.62 0.59 0.58 0.58 0.56 0.54 0.53 0.54 0.55 0.52 0.52 0.53 0.52 0.52 0.54 0.58 0.60 0.61 0.65 0.70 0.73 0.76 0.80 0.83 0.87 0.89 0.91 0.91 0.93 1.01 1.16 1.24 1.26 1.22 1.24 1.28 1.28 1.29 1.30 1.28 1.23 1.22 1.22 1.22 1.28 1.39 1.48 1.52 1.54 1.58 1.59 1.57 1.65 1.72 1.77 1.76 1.74 1.68 1.62 1.59 1.65 1.85 1.96 1.97 1.93 1.89 1.98 2.04 2.03 2.01
0.44 0.43 0.44 0.45 0.46 0.47 0.50 0.51 0.51 0.53 0.55 0.58 0.59 0.60 0.62 0.63 0.64 0.65 0.64 0.63 0.61 0.61 0.58 0.56 0.55 0.56 0.57 0.55 0.56 0.57 0.57 0.57 0.61 0.64 0.64 0.65 0.68 0.71 0.74 0.77 0.81 0.86 0.89 0.89 0.89 0.94 1.04 1.17 1.24 1.27 1.27 1.28 1.31 1.31 1.30 1.29 1.27 1.26 1.27 1.27 1.28 1.30 1.37 1.47 1.50 1.52 1.55 1.58 1.60 1.60 1.59 1.60 1.68 1.74 1.76 1.74 1.71 1.71 1.73 1.81 1.94 1.95 1.90 1.93 1.96 1.97 1.96
0.46 0.46 0.44 0.42 0.42 0.45 0.49 0.46 0.44 0.51 0.54 0.58 0.59 0.60 0.63 0.66 0.68 0.67 0.67 0.68 0.67 0.67 0.64 0.62 0.61 0.60 0.60 0.60 0.60 0.61 0.59 0.60 0.63 0.65 0.66 0.67 0.70 0.74 0.78 0.81 0.84 0.85 0.87 0.85 0.86 0.96 1.08 1.16 1.24 1.29 1.30 1.32 1.35 1.34 1.32 1.29 1.28 1.28 1.30 1.30 1.30 1.32 1.39 1.47 1.53 1.56 1.59 1.61 1.65 1.67 1.66 1.61 1.58 1.59 1.68 1.82 1.88 1.89 1.87 1.81 1.80 1.77 1.68 1.80 1.93 1.89 1.86
0.46 0.47 0.46 0.38 0.37 0.42 0.46 0.50 0.51 0.52 0.54 0.54 0.55 0.57 0.62 0.68 0.68 0.66 0.65 0.66 0.67 0.68 0.67 0.66 0.63 0.61 0.58 0.60 0.61 0.60 0.62 0.61 0.60 0.63 0.65 0.68 0.74 0.79 0.83 0.86 0.87 0.87 0.86 0.82 0.86 1.00 1.10 1.14 1.21 1.29 1.32 1.37 1.39 1.38 1.37 1.33 1.31 1.31 1.32 1.29 1.26 1.27 1.33 1.41 1.50 1.55 1.57 1.61 1.65 1.64 1.68 1.72 1.76 1.80 1.90 1.91 1.84 1.80 1.84 1.87 1.87 1.70 1.62 1.71 1.86 1.93 1.88
0.46 0.46 0.48 0.49 0.49 0.50 0.52 0.53 0.52 0.51 0.51 0.54 0.56 0.59 0.64 0.65 0.65 0.65 0.65 0.66 0.67 0.67 0.65 0.66 0.66 0.65 0.63 0.63 0.65 0.63 0.62 0.62 0.62 0.63 0.66 0.73 0.79 0.83 0.87 0.89 0.90 0.89 0.84 0.82 0.89 1.03 1.10 1.14 1.20 1.27 1.32 1.38 1.41 1.43 1.43 1.39 1.35 1.32 1.31 1.29 1.25 1.24 1.27 1.37 1.46 1.49 1.54 1.59 1.63 1.66 1.66 1.69 1.75 1.78 1.79 1.79 1.80 1.73 1.69 1.72 1.86 1.78 1.66 1.70 1.76 1.90 1.94
0.46 0.47 0.46 0.47 0.49 0.50 0.49 0.48 0.49 0.50 0.51 0.52 0.53 0.56 0.63 0.65 0.63 0.64 0.65 0.66 0.67 0.65 0.67 0.69 0.68 0.66 0.68 0.67 0.67 0.67 0.65 0.64 0.66 0.69 0.74 0.80 0.84 0.88 0.90 0.92 0.92 0.87 0.82 0.82 0.91 1.02 1.09 1.13 1.18 1.26 1.33 1.39 1.40 1.42 1.44 1.43 1.41 1.37 1.33 1.32 1.29 1.26 1.26 1.33 1.42 1.47 1.48 1.51 1.56 1.63 1.68 1.73 1.76 1.81 1.80 1.81 1.82 1.77 1.72 1.77 1.81 1.77 1.68 1.62 1.64 1.71 1.76
0.43 0.43 0.44 0.45 0.46 0.48 0.47 0.48 0.50 0.50 0.51 0.52 0.53 0.56 0.62 0.65 0.65 0.65 0.66 0.67 0.68 0.68 0.70 0.70 0.69 0.69 0.70 0.69 0.70 0.71 0.71 0.71 0.72 0.76 0.80 0.84 0.88 0.90 0.93 0.92 0.84 0.77 0.76 0.84 0.95 1.02 1.07 1.11 1.17 1.27 1.37 1.41 1.41 1.40 1.42 1.44 1.44 1.40 1.36 1.33 1.34 1.34 1.31 1.32 1.37 1.43 1.46 1.50 1.55 1.56 1.61 1.72 1.83 1.85 1.86 1.88 1.87 1.88 1.84 1.87 1.90 1.83 1.72 1.67 1.61 1.61 1.72
0.40 0.40 0.39 0.40 0.41 0.43 0.46 0.49 0.50 0.50 0.51 0.52 0.52 0.55 0.61 0.63 0.63 0.64 0.66 0.67 0.69 0.71 0.71 0.71 0.70 0.70 0.71 0.74 0.75 0.75 0.74 0.73 0.75 0.80 0.85 0.88 0.91 0.94 0.95 0.93 0.89 0.86 0.87 0.93 0.97 1.01 1.05 1.08 1.15 1.26 1.38 1.42 1.44 1.45 1.47 1.49 1.51 1.47 1.42 1.38 1.34 1.37 1.38 1.34 1.35 1.41 1.45 1.49 1.54 1.57 1.58 1.62 1.68 1.78 1.86 1.90 1.88 1.87 1.90 1.91 1.87 1.84 1.78 1.67 1.58 1.58 1.73
0.36 0.33 0.34 0.37 0.38 0.40 0.42 0.47 0.48 0.48 0.50 0.50 0.52 0.58 0.64 0.68 0.68 0.68 0.68 0.70 0.72 0.74 0.74 0.73 0.74 0.76 0.76 0.77 0.77 0.77 0.77 0.78 0.81 0.84 0.87 0.90 0.92 0.95 0.97 0.95 0.93 0.92 0.92 0.94 0.99 1.02 1.05 1.05 1.16 1.32 1.39 1.45 1.48 1.48 1.50 1.52 1.52 1.48 1.47 1.45 1.42 1.41 1.45 1.44 1.39 1.37 1.43 1.48 1.51 1.55 1.60 1.62 1.63 1.68 1.75 1.83 1.90 1.91 1.92 1.89 1.82 1.84 1.79 1.73 1.66 1.69 1.79
0.38 0.37 0.38 0.39 0.38 0.37 0.38 0.43 0.48 0.49 0.51 0.54 0.56 0.59 0.64 0.68 0.69 0.69 0.70 0.72 0.73 0.74 0.75 0.77 0.79 0.80 0.81 0.79 0.79 0.80 0.83 0.83 0.82 0.86 0.90 0.92 0.95 0.98 1.00 0.99 0.97 0.97 0.94 0.96 0.99 1.01 1.05 1.08 1.18 1.32 1.40 1.49 1.49 1.47 1.48 1.51 1.52 1.50 1.48 1.47 1.45 1.45 1.46 1.51 1.53 1.47 1.40 1.40 1.46 1.54 1.61 1.64 1.67 1.71 1.75 1.78 1.83 1.84 1.81 1.83 1.82 1.79 1.71 1.67 1.68 1.75 1.84
0.47 0.45 0.44 0.43 0.44 0.44 0.45 0.45 0.47 0.49 0.51 0.51 0.53 0.57 0.63 0.67 0.70 0.70 0.72 0.73 0.73 0.76 0.80 0.82 0.83 0.83 0.83 0.82 0.83 0.85 0.88 0.87 0.89 0.92 0.94 0.97 0.97 0.99 1.01 0.98 0.96 0.95 0.93 0.94 0.97 1.00 1.07 1.10 1.16 1.30 1.38 1.43 1.46 1.43 1.41 1.42 1.47 1.49 1.48 1.46 1.45 1.47 1.47 1.50 1.55 1.55 1.48 1.45 1.46 1.46 1.52 1.58 1.65 1.71 1.74 1.77 1.80 1.84 1.83 1.81 1.77 1.68 1.58 1.60 1.64 1.74 1.82
0.46 0.43 0.42 0.43 0.44 0.44 0.45 0.47 0.50 0.52 0.53 0.54 0.55 0.56 0.60 0.66 0.69 0.70 0.71 0.74 0.79 0.81 0.82 0.84 0.85 0.86 0.87 0.87 0.89 0.90 0.91 0.93 0.94 0.95 0.96 0.97 0.99 1.01 1.00 0.97 0.93 0.92 0.92 0.92 0.97 1.03 1.09 1.10 1.14 1.25 1.33 1.37 1.39 1.38 1.38 1.38 1.40 1.45 1.50 1.49 1.45 1.46 1.49 1.51 1.55 1.59 1.60 1.54 1.47 1.47 1.48 1.60 1.71 1.75 1.75 1.79 1.81 1.80 1.75 1.70 1.66 1.61 1.58 1.60 1.64 1.72 1.77
0.44 0.41 0.42 0.43 0.44 0.44 0.46 0.49 0.52 0.54 0.55 0.56 0.57 0.57 0.60 0.66 0.69 0.72 0.75 0.77 0.79 0.81 0.83 0.85 0.86 0.85 0.84 0.89 0.93 0.94 0.94 0.95 0.96 0.95 0.95 0.97 0.99 1.00 0.99 0.96 0.93 0.92 0.92 0.87 0.94 1.05 1.10 1.11 1.12 1.17 1.23 1.29 1.32 1.32 1.35 1.36 1.36 1.37 1.42 1.49 1.47 1.45 1.47 1.49 1.54 1.56 1.57 1.60 1.59 1.54 1.53 1.57 1.66 1.71 1.74 1.71 1.73 1.74 1.69 1.64 1.62 1.62 1.65 1.70 1.74 1.77 1.80
0.42 0.41 0.42 0.43 0.44 0.45 0.47 0.50 0.54 0.57 0.58 0.58 0.57 0.58 0.60 0.64 0.70 0.72 0.74 0.76 0.79 0.82 0.83 0.84 0.83 0.85 0.87 0.89 0.91 0.91 0.91 0.93 0.94 0.93 0.94 0.95 0.98 0.98 0.97 0.93 0.92 0.94 0.90 0.88 0.99 1.06 1.10 1.13 1.11 1.14 1.16 1.19 1.25 1.24 1.26 1.31 1.33 1.33 1.32 1.37 1.45 1.47 1.46 1.46 1.48 1.52 1.54 1.54 1.57 1.56 1.51 1.48 1.56 1.63 1.66 1.67 1.66 1.64 1.64 1.66 1.67 1.67 1.71 1.77 1.80 1.76 1.74
0.42 0.43 0.44 0.46 0.47 0.48 0.49 0.51 0.55 0.57 0.59 0.57 0.56 0.56 0.60 0.65 0.69 0.73 0.73 0.76 0.80 0.83 0.83 0.83 0.83 0.84 0.85 0.86 0.86 0.88 0.89 0.91 0.93 0.93 0.94 0.95 0.99 0.97 0.94 0.93 0.95 0.97 0.96 0.99 1.01 1.04 1.09 1.12 1.12 1.12 1.14 1.13 1.17 1.22 1.22 1.23 1.26 1.26 1.29 1.32 1.37 1.44 1.46 1.45 1.46 1.49 1.49 1.50 1.50 1.50 1.47 1.44 1.51 1.55 1.57 1.60 1.59 1.58 1.62 1.72 1.76 1.79 1.79 1.80 1.79 1.71 1.70
0.41 0.40 0.41 0.43 0.44 0.47 0.48 0.50 0.52 0.55 0.58 0.60 0.57 0.54 0.59 0.63 0.66 0.71 0.73 0.75 0.78 0.81 0.82 0.83 0.82 0.81 0.82 0.82 0.83 0.83 0.86 0.88 0.92 0.94 0.94 0.95 0.97 0.97 0.95 0.95 0.97 0.99 1.00 0.99 0.99 1.02 1.06 1.09 1.10 1.09 1.11 1.13 1.14 1.18 1.23 1.22 1.22 1.22 1.22 1.26 1.32 1.36 1.40 1.43 1.45 1.48 1.51 1.51 1.46 1.44 1.47 1.49 1.51 1.51 1.56 1.58 1.59 1.62 1.64 1.66 1.67 1.67 1.73 1.73 1.71 1.71 1.72
0.41 0.40 0.42 0.44 0.46 0.48 0.49 0.49 0.50 0.53 0.56 0.58 0.58 0.58 0.60 0.63 0.65 0.68 0.71 0.74 0.77 0.80 0.81 0.81 0.80 0.80 0.82 0.83 0.83 0.84 0.84 0.86 0.88 0.90 0.93 0.92 0.91 0.91 0.89 0.88 0.95 0.99 0.99 0.97 0.97 1.01 1.04 1.07 1.09 1.08 1.10 1.12 1.12 1.15 1.18 1.20 1.19 1.17 1.16 1.17 1.24 1.33 1.30 1.30 1.35 1.41 1.47 1.49 1.48 1.62 1.66 1.63 1.66 1.69 1.65 1.64 1.65 1.69 1.72 1.74 1.75 1.75 1.75 1.75 1.77 1.78 1.77
0.42 0.41 0.41 0.43 0.46 0.48 0.49 0.50 0.51 0.50 0.54 0.56 0.57 0.58 0.60 0.64 0.65 0.66 0.72 0.76 0.77 0.78 0.79 0.80 0.81 0.80 0.81 0.83 0.84 0.84 0.85 0.85 0.85 0.87 0.89 0.89 0.88 0.89 0.87 0.90 0.99 0.99 0.99 0.98 0.97 0.98 1.03 1.05 1.07 1.08 1.10 1.11 1.11 1.11 1.14 1.13 1.13 1.14 1.14 1.13 1.15 1.22 1.28 1.25 1.24 1.31 1.40 1.43 1.48 1.55 1.73 1.71 1.65 1.66 1.64 1.62 1.61 1.65 1.69 1.73 1.74 1.75 1.75 1.75 1.75 1.72 1.64
0.42 0.40 0.40 0.42 0.45 0.48 0.48 0.48 0.48 0.49 0.51 0.54 0.55 0.56 0.61 0.64 0.64 0.66 0.69 0.74 0.76 0.77 0.77 0.78 0.79 0.79 0.79 0.80 0.80 0.80 0.82 0.84 0.85 0.85 0.86 0.89 0.93 0.95 0.94 0.94 0.98 1.00 1.01 0.99 0.96 0.95 0.97 1.01 1.05 1.07 1.11 1.12 1.11 1.11 1.12 1.11 1.10 1.10 1.10 1.10 1.14 1.16 1.21 1.33 1.27 1.26 1.31 1.36 1.39 1.47 1.57 1.64 1.64 1.62 1.60 1.58 1.57 1.58 1.57 1.58 1.62 1.64 1.68 1.68 1.67 1.62 1.56
0.43 0.42 0.41 0.42 0.43 0.47 0.48 0.47 0.47 0.48 0.48 0.51 0.54 0.56 0.60 0.62 0.63 0.63 0.66 0.70 0.74 0.75 0.76 0.76 0.76 0.77 0.77 0.78 0.79 0.78 0.78 0.81 0.81 0.83 0.82 0.83 0.87 0.94 0.98 0.98 1.00 1.01 1.01 1.00 0.97 0.94 0.93 0.95 0.99 1.03 1.07 1.10 1.12 1.13 1.12 1.11 1.10 1.09 1.09 1.10 1.13 1.14 1.15 1.21 1.31 1.28 1.24 1.27 1.31 1.36 1.44 1.54 1.59 1.60 1.60 1.58 1.55 1.54 1.58 1.58 1.56 1.55 1.58 1.64 1.66 1.64 1.62
0.43 0.43 0.42 0.43 0.43 0.45 0.46 0.45 0.44 0.44 0.48 0.52 0.52 0.55 0.59 0.60 0.61 0.63 0.65 0.68 0.72 0.74 0.76 0.76 0.76 0.77 0.78 0.79 0.78 0.79 0.80 0.81 0.81 0.80 0.77 0.76 0.77 0.82 0.93 0.96 0.97 0.98 0.98 0.99 0.99 0.97 0.94 0.93 0.93 0.97 1.01 1.06 1.11 1.13 1.14 1.13 1.12 1.12 1.12 1.10 1.10 1.12 1.14 1.17 1.22 1.31 1.30 1.27 1.28 1.30 1.34 1.41 1.48 1.53 1.56 1.57 1.59 1.57 1.54 1.54 1.55 1.56 1.54 1.54 1.56 1.58 1.57
0.45 0.44 0.44 0.43 0.41 0.41 0.44 0.45 0.46 0.48 0.47 0.47 0.47 0.53 0.57 0.60 0.61 0.63 0.65 0.67 0.70 0.74 0.76 0.76 0.77 0.77 0.78 0.78 0.79 0.80 0.80 0.81 0.82 0.83 0.82 0.81 0.78 0.82 0.90 0.92 0.93 0.93 0.94 0.95 0.96 0.97 0.97 0.96 0.95 0.95 0.96 0.99 1.04 1.10 1.12 1.13 1.13 1.12 1.12 1.11 1.10 1.08 1.11 1.14 1.17 1.20 1.25 1.30 1.28 1.26 1.28 1.29 1.33 1.39 1.44 1.49 1.50 1.51 1.52 1.54 1.53 1.52 1.51 1.52 1.53 1.54 1.52
0.46 0.44 0.44 0.43 0.42 0.42 0.43 0.43 0.45 0.47 0.46 0.44 0.44 0.48 0.54 0.58 0.60 0.62 0.64 0.67 0.69 0.73 0.76 0.77 0.78 0.78 0.79 0.79 0.78 0.77 0.75 0.75 0.77 0.80 0.81 0.82 0.84 0.86 0.88 0.90 0.90 0.91 0.92 0.93 0.94 0.95 0.96 0.96 0.95 0.95 0.95 0.95 0.97 1.02 1.06 1.09 1.10 1.12 1.12 1.12 1.11 1.10 1.09 1.11 1.14 1.16 1.20 1.23 1.26 1.26 1.24 1.23 1.23 1.25 1.27 1.30 1.36 1.43 1.45 1.46 1.44 1.45 1.47 1.47 1.48 1.48 1.49
0.45 0.44 0.44 0.45 0.44 0.44 0.44 0.42 0.43 0.42 0.43 0.43 0.46 0.51 0.55 0.58 0.59 0.60 0.62 0.65 0.67 0.71 0.75 0.77 0.77 0.77 0.78 0.79 0.79 0.79 0.79 0.75 0.70 0.72 0.77 0.77 0.78 0.81 0.84 0.86 0.87 0.88 0.89 0.90 0.92 0.93 0.94 0.94 0.93 0.92 0.93 0.94 0.94 0.96 1.00 1.03 1.05 1.08 1.11 1.12 1.12 1.12 1.11 1.10 1.11 1.13 1.16 1.19 1.22 1.23 1.22 1.23 1.21 1.18 1.18 1.19 1.19 1.23 1.30 1.36 1.37 1.38 1.36 1.36 1.38 1.39 1.39
0.46 0.45 0.46 0.47 0.46 0.44 0.41 0.41 0.42 0.42 0.43 0.47 0.49 0.51 0.55 0.57 0.58 0.58 0.59 0.61 0.64 0.67 0.70 0.74 0.75 0.76 0.77 0.78 0.78 0.78 0.79 0.80 0.76 0.73 0.77 0.78 0.77 0.76 0.78 0.80 0.82 0.83 0.84 0.85 0.86 0.88 0.90 0.91 0.92 0.90 0.89 0.89 0.90 0.92 0.95 0.98 1.01 1.02 1.04 1.06 1.08 1.11 1.12 1.12 1.12 1.14 1.15 1.15 1.17 1.20 1.23 1.23 1.20 1.18 1.14 1.14 1.14 1.13 1.15 1.18 1.20 1.24 1.26 1.28 1.30 1.29 1.29
0.46 0.46 0.44 0.42 0.41 0.40 0.40 0.40 0.41 0.42 0.45 0.47 0.49 0.53 0.56 0.57 0.55 0.55 0.58 0.59 0.62 0.64 0.67 0.70 0.73 0.74 0.75 0.75 0.76 0.77 0.79 0.78 0.78 0.79 0.79 0.78 0.78 0.77 0.76 0.75 0.75 0.76 0.77 0.78 0.79 0.81 0.83 0.84 0.86 0.86 0.86 0.85 0.86 0.88 0.89 0.91 0.95 0.98 1.01 1.03 1.05 1.05 1.08 1.10 1.11 1.13 1.14 1.14 1.14 1.16 1.17 1.20 1.22 1.22 1.22 1.20 1.18 1.16 1.13 1.11 1.13 1.17 1.21 1.23 1.20 1.22 1.24
0.45 0.44 0.43 0.42 0.41 0.41 0.42 0.42 0.43 0.44 0.45 0.48 0.52 0.55 0.56 0.54 0.54 0.56 0.57 0.57 0.59 0.60 0.61 0.64 0.68 0.72 0.73 0.74 0.75 0.76 0.77 0.78 0.78 0.77 0.77 0.77 0.77 0.77 0.77 0.77 0.74 0.72 0.71 0.72 0.73 0.74 0.75 0.76 0.77 0.79 0.81 0.82 0.82 0.81 0.82 0.83 0.86 0.89 0.92 0.95 0.98 1.00 1.02 1.05 1.07 1.08 1.09 1.10 1.11 1.11 1.13 1.14 1.15 1.15 1.17 1.18 1.18 1.18 1.16 1.14 1.12 1.13 1.15 1.15 1.14 1.15 1.16
0.46 0.46 0.45 0.44 0.43 0.41 0.41 0.43 0.45 0.45 0.47 0.50 0.53 0.55 0.55 0.55 0.53 0.53 0.56 0.57 0.57 0.57 0.59 0.59 0.60 0.67 0.72 0.72 0.73 0.74 0.76 0.76 0.76 0.77 0.77 0.76 0.76 0.75 0.75 0.75 0.76 0.75 0.73 0.70 0.69 0.70 0.71 0.72 0.73 0.74 0.75 0.76 0.77 0.76 0.76 0.76 0.77 0.79 0.82 0.85 0.88 0.90 0.92 0.95 0.98 1.00 1.02 1.04 1.06 1.07 1.08 1.09 1.10 1.10 1.11 1.11 1.12 1.13 1.13 1.13 1.13 1.13 1.12 1.11 1.11 1.11 1.12
Wind_Speed
18 19 21 22 23 25 26 26 26 24 22 22 22 23 24 22 22 24 22 19 18 19 18 17 16 14 13 14 12 10 8 8 9 11 12 13 14 14 14 15 15 17 18 19 20 21 23 24 26 27 28 28 29 28 29 29 28 28 28 28 28 29 29 29 29 30 31 32 32 32 31 31 31 31 31 31 31 31 31 31 30 30 29 29 28 28 27
17 18 19 21 23 25 27 27 28 28 27 26 25 26 26 25 26 26 23 21 20 20 20 20 18 15 15 14 13 11 10 10 10 10 12 12 13 15 15 16 16 17 18 19 19 19 20 21 23 25 27 28 29 29 28 29 29 28 28 28 29 29 29 29 29 29 30 31 32 32 32 32 32 32 31 31 31 31 31 31 31 30 30 30 29 29 28
18 18 19 20 21 23 26 27 28 29 30 30 28 28 28 27 27 26 23 23 22 21 21 21 19 17 15 14 12 11 11 12 10 10 11 11 12 15 16 17 17 18 19 19 19 19 20 20 21 23 24 26 28 29 29 29 29 29 28 28 29 30 30 29 28 29 29 30 31 32 32 32 32 32 32 32 32 32 32 31 31 31 31 31 30 30 29
18 18 18 20 21 22 25 26 26 28 29 30 29 28 28 28 29 27 25 25 25 24 23 22 21 18 17 16 14 12 10 11 11 10 10 9 10 13 15 16 17 18 19 20 20 20 20 20 21 22 23 24 26 28 30 30 30 29 29 29 29 29 30 29 28 28 28 29 30 30 31 31 32 32 32 32 32 32 32 32 32 31 31 31 31 30 30
19 19 19 21 21 21 24 24 23 24 25 26 27 27 27 28 29 28 27 28 27 26 25 24 23 21 19 18 17 15 12 11 11 11 11 11 10 11 13 15 17 18 19 21 21 22 22 22 22 22 23 24 24 26 29 30 31 31 31 30 29 29 29 29 28 28 28 28 29 29 30 30 30 31 32 32 32 32 32 32 32 32 32 31 31 31 30
19 19 19 20 21 22 23 22 21 23 23 23 25 26 26 27 28 28 29 29 29 27 26 25 25 25 23 21 19 18 16 13 12 13 14 14 13 12 12 13 15 17 19 21 22 23 23 24 24 23 23 24 24 25 26 28 31 32 32 31 31 30 30 29 28 28 27 28 28 28 28 29 29 30 31 32 32 32 32 32 32 32 32 32 31 31 31
20 19 18 20 22 24 23 21 22 24 24 24 25 26 27 27 28 29 29 30 30 29 28 27 27 27 26 24 21 19 18 16 13 13 14 16 16 15 13 12 13 15 16 18 21 23 23 24 25 25 24 24 24 24 25 26 29 31 32 32 32 32 31 31 30 29 29 29 28 28 28 28 28 29 29 30 31 32 32 32 32 32 32 32 32 32 31
20 19 19 21 24 24 24 23 24 24 25 26 27 28 29 29 29 30 31 32 31 31 30 29 29 29 29 28 24 21 20 19 17 13 13 15 17 18 16 15 15 15 15 16 18 20 22 24 25 26 26 25 25 24 25 26 27 29 31 32 32 33 33 33 33 32 31 31 30 30 29 28 28 28 28 29 29 30 31 31 31 32 32 32 32 32 32
19 19 21 23 24 26 26 26 24 24 26 27 28 29 30 30 30 31 32 33 33 32 31 31 30 30 31 31 28 24 22 23 22 19 16 16 17 19 19 18 17 17 17 17 17 18 20 21 22 25 26 26 25 26 26 26 27 27 29 31 32 33 33 33 33 33 33 32 32 31 31 30 30 29 29 28 28 29 29 30 30 31 31 32 32 32 32
17 18 20 21 23 25 25 24 24 24 25 27 28 29 31 31 31 32 32 33 34 34 33 33 32 32 33 33 32 28 26 26 25 24 22 20 19 20 21 21 20 19 19 19 18 18 19 20 21 23 25 25 26 27 27 27 28 27 28 29 31 32 33 34 34 34 34 34 33 33 32 32 31 30 30 29 28 28 29 29 29 29 29 30 31 32 32
16 17 19 20 22 24 23 23 24 23 24 26 26 28 29 31 32 33 33 34 34 34 34 34 34 34 35 36 34 31 30 29 28 27 26 24 23 22 22 22 21 20 20 20 20 19 19 19 20 23 24 25 26 28 28 28 29 29 28 29 29 30 32 34 35 35 35 35 34 34 34 33 32 31 31 30 29 29 29 29 29 29 29 29 29 30 31
16 18 20 20 21 22 22 22 23 24 25 24 24 26 28 29 31 32 33 34 34 34 34 35 35 36 37 38 37 35 33 33 32 30 28 26 25 24 23 23 23 22 21 20 20 21 20 20 21 22 24 26 27 28 28 29 29 30 30 29 29 29 29 31 34 36 36 35 35 35 35 34 34 33 32 31 30 30 30 29 29 29 29 29 29 29 30
15 16 17 18 19 19 20 21 22 24 25 25 26 28 28 28 30 32 32 33 34 34 34 35 36 37 38 39 39 38 37 36 34 33 32 30 28 26 24 24 24 24 23 21 20 21 21 21 21 22 23 25 27 29 29 29 29 30 30 31 31 30 29 29 32 34 35 36 36 36 36 35 35 34 34 33 32 31 31 30 30 30 30 29 29 29 29
11 13 14 16 16 17 18 20 21 22 23 25 28 28 27 28 30 31 32 33 34 34 35 35 37 38 39 39 40 40 39 38 37 36 35 34 32 30 27 26 25 24 25 24 22 22 22 22 22 22 23 24 26 28 29 29 29 30 30 31 32 32 31 30 31 32 34 36 37 36 36 36 35 35 35 34 34 33 32 32 31 31 31 30 29 29 29
10 11 12 13 14 14 16 17 19 20 22 24 26 26 27 28 29 30 31 33 34 34 35 36 38 39 39 40 40 40 40 40 39 39 38 37 35 34 32 30 28 26 25 25 24 23 22 22 22 22 23 24 25 27 28 29 29 30 30 31 32 32 32 32 32 33 34 35 37 37 37 37 36 35 35 35 35 34 33 32 32 32 31 31 30 29 29
9 10 11 12 13 15 16 16 18 19 21 22 23 24 25 27 28 29 31 33 34 35 36 37 38 39 40 41 41 40 40 40 40 40 40 39 38 37 36 34 32 30 28 27 26 25 23 23 24 23 23 24 26 27 28 29 29 30 30 31 32 33 33 33 33 33 33 34 36 37 38 37 37 37 36 36 35 34 33 33 32 32 32 31 31 30 29
11 12 13 14 14 16 17 17 19 20 21 21 21 22 25 26 28 29 31 33 34 35 36 37 39 39 40 41 41 41 41 41 41 41 41 41 40 40 39 37 35 34 33 31 30 28 26 25 25 25 24 25 26 28 29 29 30 30 31 32 33 34 34 34 33 33 33 34 36 37 38 38 38 38 37 36 35 35 34 33 33 33 32 32 31 31 30
12 14 15 15 15 16 16 18 19 19 20 21 21 22 24 26 27 29 31 33 34 35 36 37 38 39 40 41 42 42 42 42 42 41 41 41 41 41 41 39 37 35 35 33 32 31 29 27 27 26 26 25 26 28 29 29 30 30 31 32 34 35 35 35 34 34 34 34 35 37 38 39 39 38 38 37 36 35 35 34 33 33 33 32 32 32 31
13 13 13 13 14 15 17 17 18 19 20 21 21 22 24 26 28 29 30 32 34 35 36 37 38 39 40 41 42 42 43 43 43 42 41 41 41 41 41 41 39 36 36 35 33 32 31 30 29 28 27 27 27 28 29 30 30 31 31 32 34 35 35 35 35 35 35 35 35 36 37 38 39 39 39 38 37 37 36 35 34 33 33 32 33 32 32
13 14 15 14 15 16 17 17 17 19 20 22 23 24 25 26 28 29 30 32 33 35 36 37 39 40 40 41 41 42 43 44 44 44 43 42 41 41 41 41 40 38 37 36 34 33 32 31 30 29 28 28 28 28 29 30 31 31 32 32 33 34 34 34 35 36 36 36 36 36 37 38 38 39 39 38 38 37 37 36 35 34 33 33 34 33 32
14 15 16 16 16 16 16 16 17 19 20 22 24 25 25 26 28 29 30 32 33 35 36 37 39 40 41 41 41 42 43 44 45 45 45 44 43 41 40 41 41 39 37 36 35 34 34 32 31 31 30 29 30 30 30 31 31 32 32 32 33 33 34 34 34 35 36 37 36 36 37 38 38 38 38 38 38 38 37 37 36 36 35 34 34 34 34
15 15 14 14 15 15 15 16 18 19 20 21 23 24 25 27 28 29 30 32 33 34 36 37 39 40 41 41 42 42 43 44 45 45 45 45 44 42 40 40 41 40 38 36 35 35 34 33 32 31 31 30 31 31 31 32 32 33 33 33 33 33 33 33 33 35 36 37 37 37 37 38 38 38 36 36 36 37 36 37 37 37 36 35 35 35 35
15 15 15 15 14 15 16 16 17 18 19 20 21 22 24 26 28 29 30 32 33 34 35 37 39 40 41 41 42 43 43 44 45 46 46 45 45 43 41 40 40 41 40 38 36 35 34 34 33 32 31 31 31 32 32 32 33 34 34 34 33 33 33 33 33 33 35 37 37 37 38 38 38 37 36 35 35 35 35 35 36 37 36 36 35 35 35
16 16 16 15 14 15 16 16 17 17 18 19 20 21 23 24 26 28 29 31 32 33 35 36 38 40 41 42 42 43 43 44 44 45 46 46 46 44 42 41 41 42 41 39 38 36 35 34 34 33 31 31 31 32 32 32 33 34 35 35 34 34 33 33 33 32 33 35 36 37 38 38 38 37 37 35 34 34 34 34 35 36 36 36 36 36 36
16 16 16 15 15 15 16 16 17 17 17 18 19 21 22 24 25 26 27 29 30 32 34 35 37 39 41 42 42 43 43 43 44 44 45 46 45 45 44 43 43 43 41 39 38 36 35 35 35 34 32 31 31 32 32 32 33 35 35 35 36 35 35 34 34 33 34 34 35 36 37 37 37 37 37 36 35 34 34 33 33 34 35 35 36 36 36
16 16 15 15 15 15 15 16 16 16 17 18 19 20 22 24 25 26 26 27 29 30 32 34 35 37 39 41 42 42 42 43 43 43 43 44 44 45 45 44 44 44 42 40 38 36 35 35 35 35 34 32 31 31 31 32 33 34 35 35 36 36 36 36 35 35 35 35 36 37 38 38 38 37 37 36 36 36 35 34 33 33 34 35 36 36 36
16 15 15 15 15 15 15 16 16 16 16 18 19 20 21 22 23 24 25 25 26 27 29 30 32 35 37 39 40 41 41 42 42 42 41 42 43 43 44 44 44 43 42 40 38 37 35 34 34 35 35 33 31 30 30 31 32 33 34 35 36 36 37 37 36 36 36 36 36 37 38 38 38 38 37 36 36 36 36 35 34 34 35 35 36 36 37
15 15 14 14 15 16 16 15 16 16 17 18 19 20 21 21 22 22 22 23 24 25 26 27 29 32 34 36 38 39 39 40 40 41 40 40 41 42 43 43 43 42 41 40 38 37 35 33 33 34 34 33 31 30 29 29 30 31 33 34 35 36 37 37 37 37 37 37 38 38 38 38 39 39 39 39 38 38 37 36 35 36 36 36 36 36 36
15 15 15 14 15 16 15 14 15 16 17 18 19 20 21 21 21 21 21 21 22 23 24 25 26 29 31 33 35 36 37 38 38 39 40 39 39 40 41 42 42 41 40 40 38 37 35 33 32 32 32 32 30 29 29 29 29 30 31 33 34 36 37 37 37 37 37 38 38 38 38 39 39 39 40 40 40 40 39 38 37 37 37 36 35 35 36
16 16 15 15 15 14 14 14 14 16 17 18 18 19 20 20 20 20 20 19 20 21 22 23 24 26 28 31 33 34 35 36 37 37 38 38 38 38 39 40 40 40 39 39 38 36 34 32 31 31 31 31 30 29 28 28 29 30 30 31 33 34 36 37 38 38 38 38 38 38 38 39 39 39 39 39 39 39 39 38 38 38 39 38 37 36 37
16 16 15 15 14 14 13 14 15 15 16 17 18 18 19 19 19 19 18 18 18 19 20 21 22 23 26 28 31 32 33 34 35 36 36 36 36 37 38 39 39 39 39 39 38 36 33 31 30 30 30 30 29 28 28 28 29 30 30 30 31 32 34 36 37 38 38 38 38 38 38 39 39 38 38 38 38 38 38 39 39 38 39 40 39 37 37
15 16 16 15 14 13 13 14 14 15 16 17 17 18 18 17 17 17 17 17 17 17 18 18 19 21 23 26 28 30 31 32 33 34 35 35 35 36 36 36 37 38 38 38 37 35 33 30 29 29 29 29 28 28 28 27 28 28 29 29 29 30 31 33 35 37 37 38 38 39 39 39 38 38 38 38 38 38 38 39 39 38 38 39 40 39 37
14 15 15 15 14 13 13 13 13 14 15 16 16 17 17 16 16 15 15 15 15 14 14 15 16 18 20 24 26 28 29 30 31 32 33 33 33 33 34 34 35 36 36 36 36 35 33 31 29 28 28 28 27 26 26 26 26 27 27 27 27 28 29 30 32 35 36 37 38 39 39 39 39 38 38 38 38 38 38 39 39 38 37 38 39 38 37
13 14 14 14 13 13 12 12 12 13 14 15 16 16 16 15 15 15 14 13 13 12 12 13 14 16 18 22 24 26 27 28 28 30 31 31 30 30 31 31 32 34 34 35 35 34 33 32 30 28 27 27 26 25 25 24 24 24 25 26 26 26 27 28 30 32 34 36 37 37 38 39 39 38 38 38 38 38 38 38 38 37 36 36 37 37 37
14 15 14 14 13 12 11 11 11 12 13 14 14 15 15 15 14 14 13 11 11 10 11 11 12 14 17 20 23 23 24 25 25 26 27 28 28 28 28 29 30 31 32 33 34 33 33 33 31 28 27 27 26 25 24 24 23 22 23 24 24 25 26 26 27 29 31 34 35 36 37 38 38 38 38 38 37 37 37 36 36 36 36 36 36 37 37
15 15 14 14 13 12 10 10 10 11 12 13 13 14 14 14 14 13 12 10 9 9 9 9 9 10 13 17 19 20 20 21 22 23 25 26 26 26 26 27 28 29 30 31 32 32 32 32 30 28 27 27 26 25 23 23 23 22 21 22 22 23 23 24 25 26 28 30 32 34 35 35 36 36 36 36 36 35 35 35 35 35 35 35 36 37 37
15 14 14 13 12 11 10 10 10 10 11 12 12 13 14 14 13 12 10 8 7 7 6 6 6 6 8 12 15 16 16 17 18 21 23 24 25 24 24 25 26 26 28 29 30 31 31 30 29 28 27 26 26 25 23 23 22 22 21 20 20 21 21 22 22 23 25 26 28 30 32 33 33 33 34 34 34 33 34 34 33 33 34 34 35 35 36
14 14 13 12 11 11 11 10 9 9 10 11 12 12 13 13 12 11 9 7 6 6 5 3 3 4 6 9 12 13 14 15 16 18 20 21 22 23 23 24 24 25 26 27 28 29 30 29 29 29 28 27 25 25 24 23 22 22 21 20 19 19 19 20 20 21 21 23 25 26 28 30 31 31 31 31 31 32 31 31 31 32 32 32 33 34 34
13 12 12 11 11 11 11 10 8 8 9 10 11 11 12 12 11 10 9 7 5 4 4 2 2 2 4 7 9 11 12 14 15 16 17 18 19 21 22 22 23 23 24 24 25 27 28 28 29 29 29 28 26 25 24 23 22 21 20 20 19 18 17 17 17 17 18 19 20 22 24 27 29 29 29 29 29 29 29 29 29 30 31 31 32 32 33
12 12 11 11 11 10 10 9 8 8 8 9 10 10 10 11 10 9 8 6 5 3 3 3 2 2 3 5 7 9 11 13 14 15 16 17 18 19 21 21 22 22 23 23 23 24 25 27 28 29 29 29 27 26 24 23 22 21 20 19 19 18 17 16 15 14 14 14 14 15 19 22 24 24 25 25 26 26 27 27 27 28 29 30 31 31 31
11 11 11 11 11 10 10 9 8 7 7 8 9 9 9 9 9 8 6 6 5 3 3 2 3 3 3 5 7 8 10 12 14 15 16 16 16 17 19 20 21 21 22 22 22 22 22 24 26 27 28 28 27 26 24 23 22 21 20 19 18 18 18 18 16 14 13 12 10 8 9 12 15 16 18 19 19 20 21 22 24 25 27 28 29 30 31
10 10 11 11 11 10 10 9 8 7 7 7 8 8 8 8 7 6 5 5 5 4 2 1 2 2 3 4 6 8 10 11 13 14 15 14 14 15 16 18 20 21 21 21 21 22 21 22 23 25 26 27 27 26 25 24 23 22 20 19 18 18 18 19 18 17 16 14 13 11 10 9 10 11 13 14 15 16 17 17 17 19 22 24 26 28 30
9 10 10 10 10 10 10 9 8 7 7 6 6 7 7 7 6 6 5 5 5 4 2 1 1 2 3 4 5 7 8 10 11 13 14 14 14 14 15 16 18 19 20 20 21 21 21 21 21 22 23 24 24 25 24 24 23 21 20 18 17 17 17 17 18 19 18 17 16 16 14 12 10 11 12 14 15 16 16 15 14 13 15 17 21 24 28
9 9 10 10 10 10 10 9 9 8 6 6 6 6 5 6 6 6 5 5 5 4 3 1 0 2 2 3 4 5 7 8 10 11 13 14 14 14 14 15 17 18 19 19 20 20 21 21 20 20 20 20 21 22 23 23 22 21 20 18 17 16 16 16 17 18 19 19 19 18 17 15 13 12 12 13 15 16 16 16 15 14 13 15 18 22 26
9 9 9 9 10 9 10 10 10 8 6 5 5 5 4 4 5 6 6 5 4 3 3 2 1 1 2 2 3 4 5 6 8 10 12 13 14 15 15 15 17 18 19 19 19 19 20 20 20 19 20 19 19 19 21 22 21 20 19 18 17 16 16 15 15 16 17 18 19 20 19 17 16 14 12 12 13 14 15 16 16 15 15 16 18 21 23
9 9 8 8 9 9 9 10 10 7 5 4 4 4 3 3 4 5 5 5 3 2 2 2 1 1 1 1 2 2 3 4 5 7 9 11 13 13 14 15 16 17 18 18 18 18 19 20 19 19 20 20 20 19 19 20 20 19 18 18 17 16 15 15 15 15 15 16 17 18 19 18 17 16 15 13 13 13 13 14 15 15 16 17 18 20 22
8 8 7 7 8 8 9 10 9 7 5 4 4 4 3 2 3 4 4 4 3 1 1 1 1 1 1 2 2 2 1 2 3 5 7 8 10 11 12 14 15 15 16 17 17 17 17 18 19 20 20 21 21 20 19 18 18 19 18 17 17 16 15 14 14 14 14 14 14 15 16 17 17 18 17 16 15 14 13 13 13 14 15 16 17 19 20
8 7 7 7 7 8 9 9 9 7 5 5 4 3 3 2 2 2 3 3 3 2 1 1 1 2 2 3 3 3 3 2 2 3 4 6 7 8 9 11 13 14 15 15 15 15 15 17 18 19 19 20 21 20 19 18 18 18 17 17 16 15 15 14 13 13 13 13 13 13 14 15 16 17 17 17 17 17 16 15 15 14 15 15 16 17 18
8 7 7 7 7 8 8 8 8 7 6 5 4 3 3 3 2 1 2 2 2 1 1 1 2 3 4 4 4 4 4 4 4 3 3 5 6 6 7 8 9 11 13 14 14 14 14 15 16 17 18 20 20 20 19 18 17 17 17 16 15 14 14 13 13 13 12 12 12 12 13 13 14 15 15 16 16 17 17 17 17 16 15 15 15 16 17
7 6 6 7 7 7 8 7 7 6 5 4 3 2 2 2 2 1 1 0 1 1 1 2 2 3 4 5 5 4 4 4 5 5 4 4 5 6 7 7 8 9 10 11 12 12 13 13 14 15 16 18 19 19 19 18 17 16 16 16 16 15 14 12 12 13 13 12 12 12 12 12 12 13 13 14 15 15 15 16 16 16 16 16 16 16 16
6 6 5 6 6 6 6 6 5 5 4 4 3 2 1 1 1 1 1 1 1 1 2 2 3 3 4 4 4 4 3 3 4 4 5 5 6 6 7 7 8 8 8 9 10 11 11 11 12 13 14 15 16 17 18 17 17 16 15 15 15 15 14 13 12 12 12 12 12 12 12 12 12 12 12 13 13 13 14 14 15 15 16 16 16 15 15
5 5 4 5 5 6 5 5 4 4 4 3 3 2 1 1 1 2 2 2 3 3 3 3 3 3 3 4 4 4 4 3 3 3 4 5 5 6 6 7 8 8 8 8 9 9 10 10 10 11 12 13 14 15 15 16 16 16 15 15 14 14 14 14 13 12 12 12 12 12 12 12 13 13 13 13 13 14 14 14 14 15 15 16 16 16 16
Wind_Direction
241 241 243 245 245 243 243 244 245 245 241 238 237 236 236 237 235 233 234 237 239 237 235 235 236 234 232 229 226 227 229 227 222 221 223 226 224 221 218 216 213 211 211 212 213 214 215 216 216 215 214 214 214 214 214 214 213 213 213 212 212 213 214 216 218 218 218 219 219 220 222 223 224 224 224 225 225 226 226 227 228 228 229 230 230 231 232
248 247 247 247 247 246 244 244 244 245 244 241 239 238 238 238 237 235 236 235 233 231 231 232 231 231 233 233 230 228 228 229 224 218 219 220 220 220 220 221 220 217 214 213 214 215 215 216 217 217 217 217 216 215 215 215 214 214 214 213 213 213 215 217 218 218 218 219 220 221 222 223 224 225 225 226 226 226 227 228 229 229 230 230 231 232 232
252 251 251 250 248 247 247 246 244 245 245 244 241 239 239 238 238 237 235 232 230 229 230 230 228 228 230 231 233 232 228 226 223 216 214 215 217 220 221 222 224 223 219 217 218 218 217 218 218 218 219 220 218 217 215 215 215 215 214 214 213 214 215 217 217 218 218 219 220 221 222 223 225 225 226 226 226 227 227 228 229 230 230 231 231 232 233
254 254 255 255 253 251 250 247 245 244 244 242 240 238 238 238 237 236 233 230 229 229 231 231 228 228 227 227 229 231 228 223 217 210 209 211 214 218 220 222 225 226 224 223 223 223 223 222 220 220 221 222 221 219 217 216 215 215 215 215 215 215 216 216 217 218 219 220 220 221 222 223 224 226 226 227 227 227 227 228 229 229 230 230 231 232 233
253 256 257 258 257 253 248 243 242 241 240 239 238 235 236 237 237 234 231 230 229 230 232 231 231 230 227 224 224 225 225 224 219 219 220 221 220 217 218 221 224 226 228 227 227 227 226 225 225 224 223 222 222 222 220 218 216 216 217 217 216 216 216 217 218 219 220 221 221 222 222 223 225 226 226 227 227 228 228 228 228 229 230 230 231 232 233
254 255 258 259 254 248 244 241 240 241 239 237 236 234 235 236 235 232 232 231 231 232 232 232 234 234 229 224 223 223 225 227 231 235 232 229 227 221 217 223 226 226 229 229 229 229 229 229 229 227 224 223 222 223 222 221 218 217 218 219 218 218 218 218 219 220 221 221 222 223 223 223 225 226 226 227 228 228 228 228 228 229 229 230 231 232 233
255 255 258 255 248 245 245 243 241 242 240 237 235 234 236 237 236 234 233 232 232 233 233 233 235 235 231 225 224 226 227 229 235 242 235 230 230 227 224 226 228 228 230 232 231 229 229 231 231 229 226 224 224 223 222 222 221 219 219 219 219 220 220 221 221 222 222 223 223 224 224 224 224 225 226 227 228 228 229 229 229 229 229 230 231 232 233
256 254 250 249 249 251 251 247 243 241 242 241 238 236 236 237 237 234 233 233 233 234 236 235 235 237 233 226 225 229 231 230 233 238 237 232 231 230 230 233 233 231 231 234 232 230 230 230 229 228 227 226 226 225 223 223 223 222 221 220 220 221 222 223 224 224 224 224 223 224 224 224 225 225 226 227 227 228 228 229 230 230 230 231 231 232 233
254 251 249 252 257 257 252 247 244 242 242 243 240 238 237 236 237 236 234 234 234 234 237 238 239 239 233 225 226 232 235 235 234 235 237 234 232 233 236 239 239 234 232 233 233 235 236 234 230 229 229 228 228 228 226 224 224 224 223 222 222 224 225 225 226 226 226 225 224 223 224 224 225 226 227 227 228 227 228 228 229 230 230 231 231 232 233
257 254 254 256 256 252 247 246 246 246 246 246 242 240 238 237 238 238 236 235 236 235 236 238 239 237 232 227 228 234 239 239 238 237 238 239 240 241 241 240 240 238 236 234 234 236 239 238 237 235 233 231 231 230 229 227 226 226 226 225 225 226 227 228 227 226 226 226 225 224 224 224 225 226 227 228 228 228 228 228 229 229 230 230 231 232 233
263 258 256 255 252 249 246 246 247 248 249 248 244 240 238 237 239 240 238 238 238 236 236 237 236 234 232 230 231 237 241 241 239 239 240 241 243 245 241 239 239 240 239 237 237 238 239 241 242 241 237 235 234 232 231 230 229 229 229 228 229 229 230 230 229 227 227 228 227 225 224 225 226 226 227 228 228 228 228 229 229 230 230 231 231 232 233
266 260 256 255 254 251 247 246 248 248 247 245 242 239 237 236 239 240 239 239 240 238 237 236 234 232 232 233 235 239 242 241 240 240 240 241 242 243 241 239 239 239 239 239 240 241 241 243 246 244 240 238 235 233 233 233 231 231 231 232 232 233 233 232 229 227 227 228 227 226 225 225 226 227 228 228 228 228 229 229 230 230 231 231 232 232 233
270 262 257 257 255 250 248 251 253 250 245 241 238 237 238 238 239 239 238 238 239 239 238 236 234 233 234 236 238 240 241 241 240 240 240 240 240 241 242 241 240 239 239 240 242 242 241 243 246 244 241 239 237 235 234 233 233 234 234 234 234 233 234 232 228 226 227 228 227 226 226 226 227 227 228 229 229 229 229 230 230 230 231 232 233 233 234
279 266 260 260 257 252 253 258 257 250 243 239 238 240 241 241 240 239 238 239 240 240 240 238 236 236 237 238 240 240 240 241 240 240 241 241 240 241 242 243 242 242 241 241 241 243 244 244 243 242 241 239 237 236 235 235 236 236 236 235 234 233 233 232 229 228 229 229 228 227 227 227 227 228 228 229 229 230 230 230 230 230 231 232 233 234 235
282 273 266 263 261 261 263 262 256 248 243 242 244 244 243 242 241 240 240 240 241 241 241 240 240 239 239 239 240 240 240 240 239 240 241 241 240 241 242 243 244 244 243 242 241 244 246 244 241 241 241 239 238 238 237 238 239 238 237 235 234 233 232 232 232 233 233 231 229 228 227 227 228 229 229 229 229 229 230 230 231 231 232 232 233 234 235
279 274 269 266 265 265 266 260 253 250 249 249 249 247 244 243 243 242 241 241 242 242 243 242 241 241 240 240 239 239 239 239 239 240 241 241 241 241 242 244 245 244 244 244 243 245 246 244 242 242 241 240 240 240 240 241 241 239 237 235 234 233 233 233 234 235 234 232 230 229 229 228 228 229 229 229 229 229 229 230 231 232 232 233 233 234 236
278 274 273 275 273 269 267 262 257 255 254 253 252 249 247 245 244 244 243 243 243 243 244 243 242 241 241 240 240 239 239 239 239 240 240 241 241 241 242 243 245 244 244 245 245 245 246 246 244 242 242 242 242 242 242 243 242 241 239 237 234 233 234 235 235 235 235 234 231 230 230 229 229 229 229 229 229 229 230 230 231 232 233 233 234 235 236
289 284 279 278 277 275 272 268 262 258 256 255 255 253 250 248 248 248 246 245 245 245 244 244 242 241 241 241 240 239 239 238 239 240 240 240 241 241 241 242 243 244 244 245 244 244 245 247 245 243 243 243 243 243 242 242 242 241 240 238 236 235 235 236 236 236 236 234 232 231 230 229 229 229 229 230 230 231 231 231 231 232 233 234 235 236 237
296 294 288 283 280 279 278 271 265 262 260 258 257 256 253 251 251 251 249 247 247 246 245 245 244 242 241 241 240 239 238 238 238 239 239 240 241 241 241 241 242 243 244 244 244 243 244 246 245 244 244 244 244 244 242 241 240 240 239 238 237 236 236 237 237 237 236 234 232 231 230 230 230 230 230 230 231 231 231 232 232 233 233 234 235 236 237
292 292 290 287 285 284 279 270 266 266 264 262 260 259 257 256 254 253 251 250 249 247 247 246 245 244 242 241 241 240 238 237 237 238 238 239 240 241 241 240 240 242 243 243 243 243 243 244 243 243 244 244 244 245 243 241 240 239 239 239 238 237 237 237 237 237 235 233 232 231 230 230 230 230 230 230 231 231 232 232 232 233 233 234 235 235 237
295 295 293 292 292 290 282 273 271 271 267 264 262 261 259 258 257 256 256 254 251 250 248 247 246 245 243 241 240 240 238 237 237 237 238 239 240 240 241 240 239 240 241 241 241 243 243 242 243 244 245 245 245 245 244 242 240 239 240 240 239 238 237 238 238 237 235 233 232 231 230 230 230 230 231 231 231 233 234 234 234 234 235 235 236 236 236
297 295 292 292 293 291 286 281 278 274 270 267 266 263 261 260 259 260 259 257 255 252 250 248 246 245 244 242 241 240 238 237 237 237 238 239 239 239 239 239 239 239 238 238 240 243 242 241 243 245 247 247 247 245 244 243 242 240 240 240 239 238 237 238 239 238 234 232 232 231 230 229 230 230 230 231 232 233 234 235 235 235 236 237 237 237 237
296 292 289 289 288 288 288 286 282 278 275 272 269 265 263 262 262 262 261 259 257 254 251 249 246 245 244 242 241 240 239 238 237 237 237 237 238 237 237 237 238 238 237 237 240 243 242 242 244 246 248 248 247 245 244 244 243 242 241 240 239 238 237 238 239 237 234 232 231 231 230 230 229 228 229 230 232 233 234 235 236 236 236 237 238 238 237
298 294 290 288 287 288 290 290 287 283 280 276 273 270 268 267 266 265 263 260 258 256 253 250 247 245 243 242 240 239 239 238 237 237 236 236 236 236 235 234 235 236 237 238 241 243 244 244 245 245 247 248 246 244 244 244 243 242 241 240 239 238 237 237 238 236 234 232 232 231 230 230 229 228 228 230 232 234 235 237 238 237 237 238 239 239 238
301 298 293 289 287 289 293 294 291 286 283 281 279 277 274 272 271 270 266 263 260 257 255 252 248 245 242 241 240 238 238 237 237 237 236 236 235 235 235 234 234 235 235 237 240 242 244 245 244 244 245 247 246 244 243 244 244 242 241 239 238 238 237 236 236 235 234 233 232 232 231 230 230 229 229 230 231 234 236 239 240 239 238 239 240 241 240
301 301 298 294 291 291 294 297 295 291 287 284 283 281 280 278 276 273 270 266 263 260 256 252 249 245 241 239 238 237 237 237 237 236 235 235 234 234 234 234 234 234 235 237 238 240 242 243 242 242 244 246 246 244 243 243 243 241 240 239 238 238 237 237 236 235 235 234 233 232 232 231 231 231 231 232 233 234 236 238 239 238 238 239 240 240 239
301 302 301 298 295 294 293 294 296 296 293 288 286 287 286 284 280 276 272 268 265 262 258 254 249 245 240 237 236 236 235 235 235 235 234 234 233 233 233 233 233 234 235 236 236 238 240 241 241 241 243 246 247 245 242 242 242 240 239 239 239 238 238 237 236 236 235 234 233 233 232 231 231 232 233 235 236 237 237 238 238 237 237 238 239 239 238
303 303 303 299 296 294 293 294 297 299 297 294 293 294 292 289 285 281 275 270 267 264 260 255 250 244 239 236 234 233 233 233 233 233 233 233 232 231 231 231 231 232 233 234 235 236 238 240 240 240 242 245 246 245 243 243 242 241 240 239 240 239 238 237 237 237 236 235 235 234 234 233 232 232 233 235 237 238 239 239 239 239 238 238 239 240 238
306 304 303 299 296 295 294 295 297 300 301 300 300 300 298 294 290 285 279 274 270 266 262 257 251 244 239 234 232 230 230 230 231 231 231 231 231 230 230 229 229 229 231 232 232 234 237 239 240 240 241 243 244 245 246 245 244 242 241 240 240 240 239 238 238 237 237 237 236 235 235 234 235 234 235 236 237 237 238 239 239 240 240 239 240 241 239
307 306 304 302 301 298 296 294 296 299 303 304 305 305 303 299 293 288 283 278 272 268 264 258 251 244 238 233 230 229 228 229 230 229 229 229 230 229 228 226 226 227 228 228 230 232 234 237 240 240 240 240 242 245 248 248 246 244 243 242 241 241 241 240 238 237 237 237 236 235 235 235 236 236 236 236 236 237 238 238 239 240 240 240 239 240 239
308 308 306 304 303 300 295 293 296 301 305 307 308 309 308 304 298 292 286 280 275 270 265 259 251 244 238 233 229 228 228 228 227 227 228 228 229 228 226 223 223 224 225 226 228 230 232 235 239 240 239 240 242 246 249 250 249 247 245 244 243 243 242 241 239 237 237 237 236 235 235 236 237 237 237 237 237 238 239 239 239 240 240 238 238 239 238
312 311 310 307 304 300 296 294 296 302 307 309 311 313 312 308 305 299 290 283 279 274 267 260 251 243 237 231 228 226 226 225 225 225 226 227 227 226 224 222 222 223 223 224 226 228 229 231 236 239 239 241 244 247 249 250 249 248 247 247 246 244 243 242 239 238 237 237 236 235 236 236 237 237 237 237 238 239 239 238 237 238 238 236 235 236 236
314 313 312 310 307 302 298 295 297 302 307 310 314 316 315 312 310 305 294 286 283 278 268 260 252 244 236 229 226 224 223 222 222 223 224 224 224 223 221 221 221 221 221 223 225 226 227 228 232 235 237 239 242 244 245 246 247 246 246 247 247 246 244 243 241 239 238 238 237 236 236 236 236 237 237 238 238 238 239 238 236 235 236 235 234 234 234
315 314 312 310 307 301 298 297 299 303 308 311 314 318 318 317 315 311 300 289 284 280 271 263 257 248 236 227 222 220 219 219 220 220 220 220 219 219 219 220 220 220 221 222 224 225 225 227 229 232 234 236 238 240 241 243 245 246 245 246 246 246 245 244 242 240 239 239 239 238 237 236 236 237 237 237 238 238 238 237 235 234 234 234 233 232 231
317 316 314 312 309 304 299 299 302 305 309 313 316 320 322 321 320 318 309 296 287 284 278 270 261 248 233 221 215 214 216 217 217 217 215 214 214 215 217 218 218 220 221 222 223 224 224 225 228 230 232 233 235 236 238 240 244 246 247 246 246 246 246 245 244 242 240 240 240 240 239 237 236 236 236 236 236 236 236 236 235 234 233 232 231 230 229
319 319 315 312 311 308 301 300 303 307 311 314 318 322 324 324 325 325 319 305 293 291 287 278 265 246 224 209 206 208 211 212 211 210 209 209 210 213 215 215 217 219 220 221 222 223 223 225 227 228 229 230 232 234 236 239 242 245 247 247 246 247 247 246 246 244 242 240 240 240 239 237 235 235 234 234 234 234 235 235 235 234 232 231 229 228 227
320 318 314 310 311 311 307 303 302 306 312 316 320 324 326 326 327 329 326 315 304 301 295 280 262 239 212 198 197 202 205 204 203 203 204 206 209 211 213 214 216 218 219 220 222 223 223 224 226 227 227 228 230 232 235 238 240 242 243 244 246 247 247 247 247 246 244 242 240 240 239 237 234 233 234 233 233 234 235 235 234 232 229 228 227 225 225
321 319 315 312 313 315 314 310 303 303 310 317 322 326 330 330 328 329 329 322 313 311 304 281 245 219 201 192 191 195 199 200 200 200 202 205 208 210 212 214 216 217 217 219 222 223 223 223 224 225 226 229 231 232 233 235 237 238 239 240 242 244 246 247 248 247 246 244 241 241 240 237 234 232 232 232 232 233 233 232 231 229 227 225 224 223 223
325 324 321 317 314 314 316 315 307 301 306 316 322 327 333 334 331 330 330 325 316 311 306 286 238 206 198 190 187 190 197 200 200 201 203 205 207 209 211 213 215 216 217 219 221 223 222 222 223 224 227 230 233 233 233 233 234 235 235 237 239 241 244 245 245 245 247 246 245 246 245 239 232 229 230 230 230 230 231 230 228 227 225 223 222 221 221
326 325 322 318 315 313 315 319 314 302 300 311 320 326 332 337 337 336 338 337 324 306 292 273 238 213 203 197 192 193 197 199 200 202 204 205 206 209 211 213 214 216 217 218 219 221 222 223 223 225 227 229 231 232 232 232 233 233 234 235 238 240 241 242 242 243 245 246 248 252 247 236 225 221 223 226 226 227 228 228 227 226 224 222 220 220 219
325 325 324 321 318 314 314 318 317 305 297 305 317 323 331 340 344 343 346 348 341 321 294 267 242 221 205 197 193 192 193 196 199 202 204 205 208 212 213 214 215 215 215 216 217 219 220 221 221 223 225 227 228 228 228 230 232 233 234 236 238 239 239 239 239 239 240 239 239 234 220 208 203 204 210 214 218 221 223 225 226 226 225 222 220 219 217
325 326 328 327 322 317 315 317 317 308 297 299 313 323 330 341 347 347 346 348 348 343 326 272 226 208 202 199 196 194 193 194 197 200 203 205 209 212 215 216 216 215 214 215 216 217 217 217 217 219 221 223 223 223 224 227 230 232 234 236 237 238 239 239 238 237 236 234 228 214 198 190 191 197 203 206 210 214 217 220 223 225 223 221 219 217 213
325 328 331 329 324 319 317 316 317 311 299 295 307 320 327 336 344 346 344 345 350 357 0 349 196 196 206 209 204 201 202 201 201 202 203 204 207 210 213 214 214 213 212 213 214 214 214 214 214 215 217 219 220 220 222 225 228 229 230 231 234 235 237 237 236 235 233 231 226 222 220 221 222 219 215 215 214 214 214 216 218 220 217 213 210 206 202
324 329 331 329 324 320 317 317 318 314 301 291 299 311 319 327 336 341 340 339 349 6 17 18 155 182 190 194 193 198 205 208 210 212 212 211 212 215 215 213 212 211 210 209 211 212 213 214 215 214 214 216 217 219 221 224 226 226 226 227 229 230 232 233 233 231 229 228 226 224 225 228 230 227 222 217 215 214 213 213 214 214 210 202 195 191 190
317 324 328 329 327 323 319 319 320 316 302 291 294 299 305 317 330 340 345 347 355 15 26 30 74 138 154 168 176 186 199 206 213 219 220 218 218 219 219 215 213 211 210 209 209 210 211 212 214 214 214 213 214 215 218 220 222 222 222 224 226 228 230 232 231 229 226 224 224 224 225 226 227 226 220 214 212 213 213 212 212 211 208 203 198 196 196
309 315 322 327 328 326 324 324 325 322 311 302 299 291 289 306 322 334 346 357 12 31 32 35 74 114 122 145 167 182 196 202 207 214 218 218 218 217 215 213 211 209 209 209 209 209 209 209 211 212 212 212 212 212 213 215 217 218 218 219 222 225 227 229 231 230 228 225 223 223 224 224 223 222 220 216 213 212 212 211 212 211 209 207 206 206 207
300 306 311 315 321 325 329 332 336 336 327 313 302 287 277 294 315 326 340 358 21 50 53 48 71 93 97 112 128 134 141 164 184 197 206 212 214 213 211 210 209 207 205 205 207 208 208 208 208 209 210 210 210 211 211 212 213 215 216 218 220 221 222 223 225 226 226 224 224 224 224 223 223 223 224 223 221 219 217 215 214 213 213 212 212 213 213
291 297 299 301 309 320 329 335 342 343 331 315 304 290 276 278 292 312 331 353 18 51 79 79 75 84 95 105 113 115 109 107 131 177 191 197 202 206 207 205 203 203 202 203 204 206 207 207 208 209 209 209 210 211 211 212 213 215 217 219 220 221 222 224 225 226 224 222 221 221 221 221 221 223 224 225 225 224 222 220 219 218 218 217 217 217 218
280 287 291 296 306 318 327 332 337 336 328 317 311 297 280 270 268 283 315 345 18 51 81 93 92 95 101 107 112 117 113 104 101 118 156 174 182 189 194 194 194 195 197 200 203 205 206 207 208 209 209 210 210 210 211 212 213 214 216 218 219 219 220 222 224 225 225 223 221 219 217 217 217 218 220 221 221 221 221 221 221 221 221 220 219 219 221
269 278 290 299 306 313 321 326 328 327 323 321 317 304 284 268 255 249 256 294 52 80 99 105 105 109 116 119 120 121 121 112 101 95 100 124 147 161 172 179 184 187 191 195 199 202 203 205 207 209 209 210 211 210 210 211 211 211 213 216 217 216 216 216 216 217 220 222 222 221 219 218 216 214 214 215 217 217 217 218 218 219 221 223 223 224 225
260 270 284 297 304 310 316 321 322 318 315 316 315 308 293 272 249 226 201 180 162 144 132 120 108 110 122 129 127 124 128 129 116 101 94 99 114 131 145 156 165 173 180 187 192 196 198 200 202 204 205 206 208 209 210 212 212 213 213 214 215 215 215 215 213 212 213 214 215 215 216 216 216 215 215 215 216 216 217 217 217 219 221 224 226 227 228
257 263 274 290 303 310 316 322 322 318 314 312 312 311 307 267 225 210 194 181 172 162 154 144 125 111 114 122 125 127 130 132 128 119 110 104 107 118 131 141 149 156 163 170 178 185 188 191 193 196 197 200 203 205 206 209 211 213 214 215 215 214 215 215 214 212 211 211 212 212 212 213 213 214 215 215 216 216 218 219 219 220 222 224 226 228 229